Regional Weather Roundup
Issued by NWS

Home | Current Version | Previous Version | Text Only | Print | Product List | Glossary Off
Versions: 1 2 3 4 5 6 7 8 9 10 11 12 13 14 15 16 17 18 19 20 21 22 23 24 25 26 27 28 29 30 31 32 33 34 35 36 37 38 39 40 41 42 43 44 45 46 47 48 49 50

000
ASUS45 KBOI 020310
RWRID

IDAHO REGIONAL WEATHER ROUNDUP
NATIONAL WEATHER SERVICE BOISE ID
900 PM MDT TUE SEP 01 2015

NOTE: "FAIR" INDICATES FEW OR NO CLOUDS BELOW 12000 FEET
WITH NO SIGNIFICANT WEATHER AND/OR OBSTRUCTIONS TO VISIBILITY

IDZ012-014-020400-
SOUTHWEST IDAHO


CITY           SKY/WX    TMP DP  RH WIND       PRES   REMARKS
BOISE          CLEAR     79  41  25 CALM      29.75R
CALDWELL         N/A     75  43  31 CALM      29.75R
MOUNTAIN HOME  PTCLDY    78  41  26 NW8       29.75R
$$

IDZ016-017-020400-
SOUTHCENTRAL IDAHO


CITY           SKY/WX    TMP DP  RH WIND       PRES   REMARKS
BURLEY         PTCLDY    65  52  62 S5        29.83R
JEROME         CLEAR     69  39  33 N6        29.83R
TWIN FALLS     CLEAR     67  36  31 E5        29.83S
$$

IDZ019>023-020400-
SOUTHEAST IDAHO


CITY           SKY/WX    TMP DP  RH WIND       PRES   REMARKS
IDAHO FALLS    CLEAR     73  35  25 SE7       29.91R
POCATELLO      CLEAR     75  35  23 S3        29.88R
REXBURG        CLEAR     73  30  20 S7        29.91S
$$

IDZ006-010-011-018-031-032-020400-
CENTRAL IDAHO MOUNTAINS


CITY           SKY/WX    TMP DP  RH WIND       PRES   REMARKS
MCCALL         CLEAR     66  35  31 SE7       29.89R
HAILEY         CLEAR     63  39  42 CALM      29.94R
STANLEY          N/A     57  26  30 S5        30.01R
SALMON         MOCLDY    73  37  27 CALM      29.76S
CHALLIS        PTCLDY    73  23  15 W8        29.87R
$$

IDZ002-004-006-007-026-020400-
NORTHERN IDAHO


CITY           SKY/WX    TMP DP  RH WIND       PRES   REMARKS
LEWISTON       MOCLDY    76  37  24 N3        29.73R
LOWELL           N/A     64  57  78 CALM      29.71R
COEUR D`ALENE  CLOUDY    64  37  36 SW6       29.74F
MULLAN PASS    PTCLDY    54  32  43 VRB3      29.92S
$$



USA.gov is the U.S. government's official web portal to all federal, state and local government web resources and services.